Location: Molino di Ancona
(43.6167°N, 13.3667°E)
Time: 01:46:53
(UTC+00:00)

SL-24 R/B - Pass Details

Date: 15 December 2019
Orbit: 617 x 1346 km, 97.9° (Epoch: 27 January)

Event Time Altitude Azimuth Distance (km) Brightness Sun altitude
Rises 05:15:24 0° 174° (S) 2,976 7.9 -13.4°
Reaches altitude 10° 05:17:40 10° 178° (S) 2,022 7.0 -13.0°
Maximum altitude 05:21:55 60° 259° (W) 708 4.1 -12.3°
Drops below altitude 10° 05:26:08 10° 340° (NNW) 2,004 6.3 -11.6°
Enters shadow 05:27:48 - 343° (NNW) 2,706 7.0 -11.3°
